STARLINK-3730, 52139

Orbit data source: Space-Track

STARLINK-3730, 52139 is a payload satellite owned by SpaceX/Seattle (US) in LEO that was launched on Sat, 19 Mar 2022 UTC via an FALCON 9 launch vehicle from the Air Force Eastern Test Range (AFETR). Payload-class satellites include a variety of spacecraft equipped with specific instruments for various scientific and technological missions. These include communications satellites like Starlink; space stations such as the ISS; scientific satellites like the Hubble; Earth observation satellites from companies like Planet Labs, Umbra, and HawkEye 360; GPS; miniature CubeSats for education and research; and military/defense satellites.

Loading next visibility...
Identifier
52139, 2022-029BD
Orbit
LEO
Country
Flag of USUS
Related business
Manufacturer
SpaceX/Seattle
Mission
Operational Commercial Communications
Bus & Motor
STARLINK, Unknown motor
Mass
297 kg wet, ~275 kg dry
Launch date (UTC)
2022-03-19 (4 years ago)
Launch vehicle
FALCON 9
Launch site
Air Force Eastern Test Range (AFETR)
Object type
Payload
Rocket body
Debris
Shape & HBR
Box + 1 Pan, 10.1 m
Radar Cross Section
13.562 m², Large (>1 m²)

Expand to show TLE details & history
Last TLE update: 2 days ago

TLE from 2 days ago
0 STARLINK-3730
1 52139U 22029BD  26171.18071878  .00000604  00000-0  56047-4 0  9998
2 52139  53.1598 338.9049 0001044  96.4564 263.6547 15.08835483236269
Epoch: 2026-06-20T04:20Z
TLE epoch observation values (Epoch: 2026-06-20T04:20:14.102Z)
Latitude
0.00003°
Longitude
5.44713°
Altitude
540.728 km
Speed
7.593 km/s
True Right ascension
22h 35m 37s
True Declination
0° 00' 00"
Sunlit
Object was in daylight at epoch
Visualization orbit readout
Latitude
Unknown
Longitude
Unknown
Altitude
Unknown
Speed
Unknown
Apparent Right ascension
Unknown
Apparent Declination
Unknown
Sunlit
N/A
Visualization observer readout
Local Sidereal Time
21:32:59
Azimuth
Unknown
Elevation
Unknown
Doppler factor
Unknown
Orbital elements
Apogee altitude
540.734 km
Perigee altitude
539.289 km
Semi-major axis
6,918.148 km
Eccentricity
0.0001
Inclination
53.1598°
RAAN
338.9049°
Arg. of periapsis
96.4564°
True anomaly
263.64281°
Mean anomaly
263.6547°
Eccentric anomaly
263.64876°
Mean motion
3.77188 °/min
Orbital period
95.44 mins
BSTAR
0.000056047
Loading maneuver chart data...
Computing Atmospheric mass density...
Loading historical data...
Loading historical data...
Loading historical data...
Loading historical data...
Loading historical data...
Loading historical data...
Loading historical data...

Documentation

Showing up to 5 results
|